紫金山第1彗星

62P/Tsuchinshan 1 (2023)

English version
Home page
Updated on May 15, 2024

---------------------------------------------------------------------

・ プロフィール

・ 写真集

・ 軌道要素

Epoch 2024 Mar. 31.0 TT = JDT 2460400.5
T 2023 Dec. 25.11608 TT                                 Rudenko
q   1.2649495            (2000.0)            P               Q
n   0.15935882     Peri.   47.30267     -0.43555693     -0.89686758
a   3.3693954      Node    68.66704     +0.79985649     -0.42481353
e   0.6245767      Incl.    4.73758     +0.41294038     -0.12313407
P   6.18
>From 1499 observations 2023 Aug. 29-2024 Mar. 19, mean residual 0".5.
     Nongravitational parameters A1 = +0.51, A2 = +0.6836.

・ 星図

・ 光度変化

        m1 = 10.0 + 5 logΔ + 30.0 log r  [    ,-100]  (              〜2023年 9月16日)
        m1 =  3.0 + 5 logΔ + 60   log r  [-100,   0]  (2023年 9月16日〜2023年12月25日)
        m1 =  6.0 + 5 logΔ + 30.0 log r  [   0,    ]  (2023年12月25日〜              )

---------------------------------------------------------------------

軌道要素はM.P.E.C. 2024-F34に掲載されたものです。
星図はステラナビゲータ Ver.10 (アストロアーツ) で作成したものです。
光度グラフはComet for Windowsで作成したものです。

---------------------------------------------------------------------

Copyright(C) Seiichi Yoshida (comet@aerith.net). All rights reserved.